Dati Storici

Data ora Umidita' aria (%) Temperatura aria (°C) Rad globale (W/m²) Gonioanemometro (°) Tacoanemometro (m/s) Pioggia (mm)
11-06-2020 00:50 98 % 13.866 -78.23 0.004 0 0
11-06-2020 00:40 98 % 13.894 -53.101 0.005 0 0
11-06-2020 00:30 98 % 13.982 -78.575 0.003 0 0
11-06-2020 00:20 98 % 13.951 -63.527 1.016 0 0
11-06-2020 00:10 98 % 14.039 -78.074 0.003 0 0
11-06-2020 00:00 98 % 14.003 -81.407 0.004 0 0
10-06-2020 23:50 98 % 13.975 -81.439 0.004 0 0
10-06-2020 23:40 98 % 14.028 -80.129 0.002 0 0
10-06-2020 23:30 98 % 14.039 -77.54 0.792 0 0
10-06-2020 23:20 97.9 % 13.846 -74.771 -0.003 0 0
10-06-2020 23:10 97.9 % 13.898 -72.172 -0.002 0 0
10-06-2020 23:00 98 % 13.99 -74.923 0.001 0 0
10-06-2020 22:50 97.9 % 13.88 -76.245 -0.001 0 0
10-06-2020 22:40 98 % 13.855 -81.156 0.001 0 0
10-06-2020 22:30 98 % 13.715 -77.435 0.002 0 0
10-06-2020 22:20 97.9 % 13.631 -78.502 0.001 0 0
10-06-2020 22:10 98 % 13.854 -75.793 0.004 0 0
10-06-2020 22:00 98 % 13.92 -76.188 0.001 0 0
10-06-2020 21:50 97.9 % 13.928 -76.077 0.002 0 0
10-06-2020 21:40 97.9 % 13.921 -79.054 0.001 0 0

I dati sono presentati in modo automatico a scopo informativo. In seguito a verifica i dati possono subire modifiche o essere invalidati e non riportati negli archivi definitivi.